Manteo, NC

12:20 PM EDT on July 28, 2017 (GMT -0400)
Dare County Regional

Weather History for KMQI - June, 2013

Change the Weather History Date:

Monday, June 24, 2013

  Actual Average Record
Temperature  
Mean Temperature 80 °F -  
Max Temperature 85 °F 81 °F 98 °F (2010)
Min Temperature 74 °F 71 °F 55 °F (1980)
Cooling Degree Days 14    
Growing Degree Days 30 (Base 50)    
Moisture  
Dew Point 72 °F    
Average Humidity 81    
Maximum Humidity 94    
Minimum Humidity 61    
Precipitation  
Precipitation 0.00 in - - ()
Sea Level Pressure  
Sea Level Pressure 30.17 in    
Wind  
Wind Speed 10 mph (WSW)    
Max Wind Speed 18 mph    
Max Gust Speed 23 mph    
Visibility 10 miles    
Events Rain    
Averages and records for this station are not official NWS values.
T = Trace of Precipitation, MM = Missing Value Source: NWS Daily Summary

Daily Weather History Graph

Daily Weather History Graph

Search for Another Location

Airport or City:

Trip Planner

Search our weather history database for the weather conditions in past years. The results will help you decide how hot, cold, wet, or windy it might be!

Date:

Astronomy

Jun. 24, 2013 Rise Set
Actual Time 5:47 AM EDT 8:23 PM EDT
Civil Twilight 5:17 AM EDT 8:53 PM EDT
Nautical Twilight 4:39 AM EDT 9:30 PM EDT
Astronomical Twilight 3:57 AM EDT 10:12 PM EDT
Moon 9:27 PM EDT (6/24) 7:08 AM EDT (6/24)
Length of Visible Light 15h 36m
Length of Day
14h 35m
Full, 98% of the Moon is Illuminated
Jun 24
Full
Jun 30
Last Quarter
Jul 8
New
Jul 15
First Quarter
Jul 22
Full

Hourly Weather History & Observations

Time (EDT) Temp. Heat Index Dew Point Humidity Pressure Visibility Wind Dir Wind Speed Gust Speed Precip Events Conditions
12:15 AM 76.3 °F - 72.5 °F 88% 30.20 in 10.0 mi SW 10.4 mph - N/A   Clear
12:35 AM 76.5 °F - 72.5 °F 87% 30.20 in 10.0 mi SW 10.4 mph - N/A   Clear
12:55 AM 76.3 °F - 72.5 °F 88% 30.20 in 10.0 mi WSW 9.2 mph - N/A   Clear
1:15 AM 76.1 °F - 72.5 °F 89% 30.20 in 10.0 mi WSW 9.2 mph - N/A   Clear
1:35 AM 76.1 °F - 72.5 °F 89% 30.21 in 10.0 mi WSW 9.2 mph - N/A   Mostly Cloudy
1:55 AM 75.6 °F - 72.5 °F 90% 30.20 in 10.0 mi WSW 9.2 mph - N/A   Mostly Cloudy
2:15 AM 75.6 °F - 72.5 °F 90% 30.20 in 10.0 mi WSW 8.1 mph - N/A   Overcast
2:35 AM 75.4 °F - 72.7 °F 91% 30.20 in 10.0 mi WSW 6.9 mph - N/A   Mostly Cloudy
2:55 AM 75.2 °F - 72.9 °F 92% 30.21 in 10.0 mi WSW 5.8 mph - N/A   Mostly Cloudy
3:15 AM 75.2 °F - 72.9 °F 92% 30.20 in 10.0 mi SW 6.9 mph - N/A   Scattered Clouds
3:35 AM 75.2 °F - 72.9 °F 92% 30.20 in 10.0 mi WSW 8.1 mph - N/A   Clear
3:55 AM 74.8 °F - 72.9 °F 94% 30.20 in 10.0 mi West 6.9 mph - N/A   Clear
4:15 AM 74.8 °F - 72.9 °F 94% 30.20 in 10.0 mi WSW 6.9 mph - N/A   Scattered Clouds
4:35 AM 74.8 °F - 73.0 °F 94% 30.21 in 10.0 mi SW 8.1 mph - N/A   Scattered Clouds
4:55 AM 75.0 °F - 73.0 °F 94% 30.21 in 10.0 mi SW 9.2 mph - N/A   Scattered Clouds
5:15 AM 75.4 °F - 73.2 °F 93% 30.20 in 10.0 mi SW 9.2 mph - N/A   Mostly Cloudy
5:35 AM 75.2 °F - 73.4 °F 94% 30.20 in 10.0 mi SW 9.2 mph - N/A   Overcast
5:55 AM 74.8 °F - 73.0 °F 94% 30.20 in 10.0 mi SW 9.2 mph - N/A   Scattered Clouds
6:15 AM 75.2 °F - 73.0 °F 93% 30.20 in 10.0 mi SW 9.2 mph - N/A   Scattered Clouds
6:35 AM 75.4 °F - 73.4 °F 94% 30.20 in 10.0 mi WSW 10.4 mph - N/A   Scattered Clouds
6:55 AM 75.2 °F - 73.0 °F 93% 30.20 in 10.0 mi SW 9.2 mph - N/A   Scattered Clouds
7:15 AM 76.3 °F - 73.4 °F 91% 30.21 in 10.0 mi SW 8.1 mph - N/A   Mostly Cloudy
7:35 AM 76.3 °F - 73.4 °F 91% 30.21 in 10.0 mi WSW 9.2 mph - N/A   Overcast
7:55 AM 76.8 °F - 73.4 °F 89% 30.21 in 10.0 mi WSW 8.1 mph - N/A   Overcast
8:15 AM 77.0 °F - 73.4 °F 89% 30.22 in 10.0 mi WSW 9.2 mph - N/A   Overcast
8:35 AM 77.4 °F - 73.4 °F 88% 30.22 in 10.0 mi WSW 8.1 mph - N/A   Overcast
8:55 AM 78.1 °F - 73.4 °F 85% 30.22 in 10.0 mi WSW 10.4 mph - N/A   Overcast
9:15 AM 79.0 °F - 73.4 °F 83% 30.22 in 10.0 mi WSW 10.4 mph - N/A   Mostly Cloudy
9:35 AM 80.4 °F 84.8 °F 72.9 °F 78% 30.22 in 10.0 mi WSW 10.4 mph - N/A   Mostly Cloudy
9:55 AM 81.5 °F 86.5 °F 72.9 °F 75% 30.21 in 10.0 mi WSW 12.7 mph - N/A   Overcast
10:15 AM 79.7 °F - 72.9 °F 80% 30.21 in 7.0 mi WSW 10.4 mph - N/A Rain Rain
10:35 AM 79.0 °F - 73.9 °F 84% 30.22 in 10.0 mi WSW 8.1 mph - N/A   Mostly Cloudy
10:55 AM 79.7 °F - 73.9 °F 82% 30.22 in 10.0 mi SW 11.5 mph - N/A   Scattered Clouds
11:15 AM 80.6 °F 85.2 °F 73.2 °F 78% 30.22 in 10.0 mi WSW 10.4 mph - N/A   Scattered Clouds
11:35 AM 81.1 °F 85.6 °F 72.0 °F 74% 30.21 in 10.0 mi WSW 10.4 mph - N/A   Clear
11:55 AM 81.5 °F 85.9 °F 71.8 °F 72% 30.20 in 10.0 mi WSW 12.7 mph - N/A   Clear
12:15 PM 81.7 °F 86.0 °F 71.6 °F 71% 30.20 in 10.0 mi WSW 11.5 mph - N/A   Clear
12:35 PM 82.4 °F 87.2 °F 71.8 °F 70% 30.20 in 10.0 mi WSW 10.4 mph - N/A   Scattered Clouds
12:55 PM 83.5 °F 88.5 °F 71.6 °F 67% 30.20 in 10.0 mi WSW 12.7 mph - N/A   Clear
1:15 PM 83.5 °F 88.8 °F 72.0 °F 68% 30.20 in 10.0 mi WSW 10.4 mph - N/A   Scattered Clouds
1:35 PM 83.3 °F 88.7 °F 72.1 °F 69% 30.20 in 10.0 mi WSW 13.8 mph - N/A   Scattered Clouds
1:55 PM 84.4 °F 90.3 °F 72.1 °F 67% 30.19 in 10.0 mi SW 15.0 mph - N/A   Scattered Clouds
2:15 PM 84.0 °F 89.6 °F 72.0 °F 67% 30.19 in 10.0 mi WSW 12.7 mph - N/A   Scattered Clouds
2:35 PM 78.1 °F - 66.6 °F 68% 30.18 in 10.0 mi NW 10.4 mph 19.6 mph N/A   Mostly Cloudy
2:55 PM 80.1 °F 82.0 °F 65.7 °F 61% 30.16 in 10.0 mi NW 6.9 mph - N/A   Mostly Cloudy
3:15 PM 82.2 °F 85.5 °F 68.7 °F 64% 30.15 in 10.0 mi West 3.5 mph - N/A   Scattered Clouds
3:35 PM 81.7 °F 84.9 °F 68.7 °F 65% 30.14 in 10.0 mi SSW 6.9 mph - N/A   Scattered Clouds
3:55 PM 84.0 °F 89.6 °F 72.0 °F 67% 30.12 in 10.0 mi WSW 6.9 mph - N/A   Scattered Clouds
4:15 PM 85.6 °F 91.5 °F 72.0 °F 63% 30.12 in 10.0 mi SW 11.5 mph 17.3 mph N/A   Mostly Cloudy
4:35 PM 84.4 °F 90.3 °F 72.1 °F 67% 30.12 in 10.0 mi SW 10.4 mph - N/A   Scattered Clouds
4:55 PM 83.5 °F 88.8 °F 71.8 °F 68% 30.12 in 10.0 mi WSW 15.0 mph - N/A   Mostly Cloudy
5:15 PM 83.1 °F 88.9 °F 73.0 °F 71% 30.11 in 10.0 mi SW 15.0 mph - N/A   Mostly Cloudy
5:35 PM 83.5 °F 90.0 °F 73.4 °F 72% 30.11 in 10.0 mi SW 15.0 mph - N/A   Scattered Clouds
5:55 PM 83.3 °F 89.6 °F 73.6 °F 72% 30.11 in 10.0 mi SW 16.1 mph - N/A   Mostly Cloudy
6:15 PM 82.2 °F 87.8 °F 73.2 °F 74% 30.10 in 10.0 mi SW 18.4 mph 23.0 mph N/A   Mostly Cloudy
6:35 PM 81.9 °F 87.0 °F 72.7 °F 74% 30.10 in 10.0 mi WSW 12.7 mph - N/A   Scattered Clouds
6:55 PM 81.5 °F 86.5 °F 72.9 °F 75% 30.11 in 10.0 mi WSW 13.8 mph 18.4 mph N/A   Scattered Clouds
7:15 PM 80.8 °F 85.4 °F 73.0 °F 77% 30.10 in 10.0 mi SW 12.7 mph - N/A   Scattered Clouds
7:35 PM 80.6 °F 85.0 °F 72.9 °F 77% 30.09 in 10.0 mi WSW 12.7 mph - N/A   Scattered Clouds
7:55 PM 80.2 °F 84.6 °F 73.0 °F 79% 30.10 in 10.0 mi WSW 11.5 mph - N/A   Clear
8:15 PM 79.7 °F - 72.7 °F 79% 30.10 in 10.0 mi SW 12.7 mph - N/A   Clear
8:35 PM 79.2 °F - 72.9 °F 81% 30.11 in 10.0 mi WSW 10.4 mph - N/A   Clear
8:55 PM 78.8 °F - 72.9 °F 82% 30.12 in 10.0 mi SW 10.4 mph - N/A   Clear
9:15 PM 78.4 °F - 73.0 °F 83% 30.12 in 10.0 mi SW 11.5 mph - N/A   Mostly Cloudy
9:35 PM 78.1 °F - 73.4 °F 85% 30.12 in 10.0 mi WSW 11.5 mph 17.3 mph N/A   Mostly Cloudy
9:55 PM 77.9 °F - 73.2 °F 85% 30.12 in 10.0 mi WSW 12.7 mph - N/A   Clear
10:15 PM 77.9 °F - 72.9 °F 84% 30.13 in 10.0 mi WSW 10.4 mph - N/A   Clear
10:35 PM 77.4 °F - 72.9 °F 86% 30.13 in 10.0 mi WSW 10.4 mph - N/A   Clear
10:55 PM 77.0 °F - 72.9 °F 87% 30.13 in 10.0 mi WSW 10.4 mph - N/A   Clear
11:15 PM 76.6 °F - 72.7 °F 87% 30.12 in 10.0 mi SW 10.4 mph - N/A   Clear
11:35 PM 76.3 °F - 72.5 °F 88% 30.13 in 10.0 mi SW 11.5 mph - N/A   Clear
11:55 PM 76.1 °F - 72.3 °F 88% 30.13 in 10.0 mi WSW 10.4 mph - N/A   Clear